KA7MYM Weather Reports


time (UTC)temp
C
wind
direction
speed
KPH
gust
KPH
rain 1hr
cm
rain 24hr
cm
rain mn
cm
humidity
%
barometer
mb
20260505235836 -17 53 1.6 4.8 0.00 0.00 0.00 1017.3
20260505235334 -17 78 1.6 4.8 0.00 0.00 0.00 1017.3
20260505234830 -17 343 1.6 6.4 0.00 0.00 0.00 1017.3
20260505234329 -17 342 1.6 6.4 0.00 0.00 0.00 1017.3
20260505233825 -17 21 1.6 6.4 0.00 0.00 0.00 1017.0
20260505233323 -17 21 1.6 6.4 0.00 0.00 0.00 1017.3
20260505232820 -17 40 1.6 4.8 0.00 0.00 0.00 1017.3
20260505232318 -17 41 1.6 6.4 0.00 0.00 0.00 1017.3
20260505231814 -17 343 1.6 6.4 0.00 0.00 0.00 1017.3
20260505231312 -17 33 1.6 8.0 0.00 0.00 0.00 1017.3
20260505230810 -17 350 1.6 8.0 0.00 0.00 0.00 1017.3
20260505230307 -17 5 3.2 6.4 0.00 0.00 0.00 1017.3
20260505225803 -17 355 3.2 6.4 0.00 0.00 0.00 1017.3
20260505225301 -17 345 3.2 8.0 0.00 0.00 0.00 1017.3
20260505224755 -17 329 3.2 8.0 0.00 0.00 0.00 1017.3
20260505224253 -17 5 1.6 8.0 0.00 0.00 0.00 1017.3
20260505223751 -17 22 3.2 8.0 0.00 0.00 0.00 1017.3
20260505223247 -17 321 3.2 6.4 0.00 0.00 0.00 1017.3
20260505222743 -17 11 3.2 8.0 0.00 0.00 0.00 1017.3
20260505222240 -17 348 3.2 8.0 0.00 0.00 0.00 1017.3
20260505221737 -17 355 3.2 8.0 0.00 0.00 0.00 1017.3
20260505221233 -17 5 3.2 8.0 0.00 0.00 0.00 1017.3
20260505220730 -17 5 3.2 11.3 0.00 0.00 0.00 1017.3
20260505220228 -17 5 3.2 11.3 0.00 0.00 0.00 1017.3
20260505215726 -17 14 3.2 6.4 0.00 0.00 0.00 1017.3
20260505215223 -17 5 1.6 8.0 0.00 0.00 0.00 1017.3
20260505214721 -17 38 3.2 8.0 0.00 0.00 0.00 1017.7
20260505214218 -17 0 3.2 8.0 0.00 0.00 0.00 1017.7
20260505213715 -17 355 3.2 6.4 0.00 0.00 0.00 1017.7
20260505213212 -17 15 3.2 6.4 0.00 0.00 0.00 1017.7
20260505212708 -17 289 3.2 9.7 0.00 0.00 0.00 1017.7
20260505212206 -17 325 3.2 12.9 0.00 0.00 0.00 1017.7
20260505211702 -17 5 3.2 12.9 0.00 0.00 0.00 1017.7
20260505211200 -17 5 3.2 12.9 0.00 0.00 0.00 1017.7
20260505210656 -17 342 3.2 12.9 0.00 0.00 0.00 1017.7
20260505210153 -17 350 3.2 9.7 0.00 0.00 0.00 1017.7
20260505205651 -17 9 3.2 8.0 0.00 0.00 0.00 1017.7
20260505205149 -17 332 3.2 8.0 0.00 0.00 0.00 1017.7
20260505204645 -17 0 3.2 8.0 0.00 0.00 0.00 1017.7
20260505204143 -17 341 3.2 8.0 0.00 0.00 0.00 1017.7
20260505203640 -17 24 3.2 8.0 0.00 0.00 0.00 1017.7
20260505203137 -17 5 1.6 6.4 0.00 0.00 0.00 1017.7
20260505202632 -17 89 1.6 6.4 0.00 0.00 0.00 1017.7
20260505202128 -17 5 1.6 6.4 0.00 0.00 0.00 1017.7
20260505201625 -17 355 1.6 6.4 0.00 0.00 0.00 1017.7
20260505201123 -17 5 1.6 6.4 0.00 0.00 0.00 1017.7
20260505200621 -17 88 1.6 4.8 0.00 0.00 0.00 1017.7
20260505200118 -17 63 1.6 6.4 0.00 0.00 0.00 1017.7
20260505195614 -17 0 1.6 6.4 0.00 0.00 0.00 1017.7
20260505195111 -17 16 1.6 8.0 0.00 0.00 0.00 1017.7
20260505194608 -17 17 3.2 8.0 0.00 0.00 0.00 1017.3
20260505194104 -17 0 1.6 8.0 0.00 0.00 0.00 1017.3
20260505193601 -17 46 1.6 6.4 0.00 0.00 0.00 1017.3
20260505193058 -17 36 1.6 4.8 0.00 0.00 0.00 1017.3
20260505192557 -17 5 1.6 4.8 0.00 0.00 0.00 1017.3
20260505192054 -17 340 1.6 6.4 0.00 0.00 0.00 1017.3
20260505191552 -17 72 1.6 6.4 0.00 0.00 0.00 1017.3
20260505191050 -17 162 1.6 6.4 0.00 0.00 0.00 1017.3
20260505190544 -17 355 1.6 4.8 0.00 0.00 0.00 1017.3
20260505190040 -17 61 1.6 6.4 0.00 0.00 0.00 1017.3
20260505185537 -17 80 1.6 6.4 0.00 0.00 0.00 1017.3
20260505185033 -17 38 0.0 3.2 0.00 0.00 0.00 1017.3
20260505184530 -17 37 0.0 3.2 0.00 0.00 0.00 1017.3
20260505184027 -17 37 0.0 3.2 0.00 0.00 0.00 1017.3
20260505183524 -17 39 0.0 3.2 0.00 0.00 0.00 1017.3
20260505183021 -17 36 0.0 3.2 0.00 0.00 0.00 1017.3
20260505182518 -17 37 1.6 3.2 0.00 0.00 0.00 1017.3
20260505182015 -17 30 0.0 3.2 0.00 0.00 0.00 1017.3
20260505181511 -17 34 0.0 3.2 0.00 0.00 0.00 1017.3
20260505181009 -17 50 0.0 1.6 0.00 0.00 0.00 1017.0
20260505180504 -17 50 0.0 1.6 0.00 0.00 0.00 1017.3
20260505180002 -17 50 0.0 3.2 0.00 0.00 0.00 1017.0
20260505175457 -17 50 0.0 3.2 0.00 0.00 0.00 1017.3
20260505174954 -17 50 1.6 4.8 0.00 0.00 0.00 1017.0
20260505174451 -17 49 1.6 4.8 0.00 0.00 0.00 1017.0
20260505173947 -17 51 1.6 6.4 0.00 0.00 0.00 1017.0
20260505173444 -17 78 1.6 6.4 0.00 0.00 0.00 1017.0
20260505172941 -17 95 0.0 4.8 0.00 0.00 0.00 1017.0
20260505172439 -17 105 0.0 0.0 0.00 0.00 0.00 1017.0
20260505171938 -17 105 0.0 0.0 0.00 0.00 0.00 1017.0
20260505171436 -17 65 0.0 0.0 0.00 0.00 0.00 1017.0
20260505170932 -17 65 0.0 0.0 0.00 0.00 0.00 1017.0
20260505170429 -17 65 0.0 0.0 0.00 0.00 0.00 1016.7
20260505165924 -17 65 0.0 0.0 0.00 0.00 0.00 1017.0
20260505165420 -17 66 0.0 0.0 0.00 0.00 0.00 1016.7
20260505164916 -17 65 0.0 0.0 0.00 0.00 0.00 1016.7
20260505164413 -17 65 0.0 0.0 0.00 0.00 0.00 1016.7
20260505163911 -17 65 0.0 0.0 0.00 0.00 0.00 1016.7
20260505163410 -17 65 0.0 0.0 0.00 0.00 0.00 1016.7
20260505162908 -17 65 0.0 0.0 0.00 0.00 0.00 1016.7
20260505162403 -17 71 0.0 0.0 0.00 0.00 0.00 1016.7
20260505161901 -17 113 0.0 0.0 0.00 0.00 0.00 1017.0
20260505161357 -17 113 0.0 0.0 0.00 0.00 0.00 1017.0
20260505160855 -17 113 0.0 0.0 0.00 0.00 0.00 1017.0
20260505160353 -17 113 0.0 0.0 0.00 0.00 0.00 1017.0
20260505153332 -17 113 0.0 0.0 0.00 0.00 0.00 1017.0
20260505152829 -17 113 0.0 0.0 0.00 0.00 0.00 1017.0
20260505152326 -17 113 0.0 0.0 0.00 0.00 0.00 1017.0
20260505151820 -17 113 0.0 0.0 0.00 0.00 0.00 1017.0
20260505151317 -17 113 0.0 0.0 0.00 0.00 0.00 1017.0
20260505150814 -17 113 0.0 0.0 0.00 0.00 0.00 1017.0
20260505150311 -17 113 0.0 0.0 0.00 0.00 0.00 1016.7
20260505140235 -17 113 0.0 0.0 0.00 0.00 0.00 1016.7
20260505130159 -17 113 0.0 0.0 0.00 0.00 0.00 1016.3
20260505124649 -17 113 0.0 0.0 0.00 0.00 0.00 1016.3
20260505124145 -17 113 0.0 0.0 0.00 0.00 0.00 1016.3
20260505123641 -17 113 0.0 0.0 0.00 0.00 0.00 1016.0
20260505123139 -17 113 0.0 0.0 0.00 0.00 0.00 1016.3
20260505122635 -17 113 0.0 0.0 0.00 0.00 0.00 1016.0
20260505122132 -17 113 0.0 0.0 0.00 0.00 0.00 1016.0
20260505121629 -17 113 0.0 0.0 0.00 0.00 0.00 1016.0
20260505121125 -17 113 0.0 0.0 0.00 0.00 0.00 1016.0
20260505120622 -17 113 0.0 1.6 0.00 0.00 0.00 1016.0
20260505120118 -17 113 0.0 1.6 0.00 0.00 0.00 1016.0
20260505115612 -17 113 0.0 0.0 0.00 0.00 0.00 1016.0
20260505115110 -17 113 0.0 0.0 0.00 0.00 0.00 1016.0
20260505114607 -17 113 0.0 0.0 0.00 0.00 0.00 1016.0
20260505114103 -17 113 0.0 0.0 0.00 0.00 0.00 1016.0
20260505113559 -17 113 0.0 0.0 0.00 0.00 0.00 1016.0
20260505113056 -17 113 0.0 0.0 0.00 0.00 0.00 1016.0
20260505112552 -17 113 0.0 3.2 0.00 0.00 0.00 1016.0
20260505112051 -17 113 0.0 3.2 0.00 0.00 0.00 1016.0
20260505111544 -17 113 0.0 3.2 0.00 0.00 0.00 1016.0
20260505111040 -17 113 0.0 3.2 0.00 0.00 0.00 1016.0
20260505110537 -17 113 0.0 3.2 0.00 0.00 0.00 1016.0
20260505102010 -17 119 0.0 4.8 0.00 0.00 0.00 1015.6
20260505101508 -17 128 0.0 4.8 0.00 0.00 0.00 1015.6
20260505101004 -17 146 0.0 4.8 0.00 0.00 0.00 1015.6
20260505100501 -17 146 0.0 4.8 0.00 0.00 0.00 1015.6
20260505095957 -17 103 0.0 1.6 0.00 0.00 0.00 1015.6
20260505095454 -17 103 0.0 1.6 0.00 0.00 0.00 1015.6
20260505094950 -17 103 0.0 1.6 0.00 0.00 0.00 1015.6
20260505094447 -17 103 0.0 1.6 0.00 0.00 0.00 1015.6
20260505093943 -17 103 0.0 1.6 0.00 0.00 0.00 1015.6
20260505093440 -17 103 0.0 3.2 0.00 0.00 0.00 1015.6
20260505092937 -17 103 0.0 3.2 0.00 0.00 0.00 1015.6
20260505092435 -17 103 0.0 0.0 0.00 0.00 0.00 1015.6
20260505091932 -17 103 0.0 1.6 0.00 0.00 0.00 1015.6
20260505091430 -17 103 0.0 1.6 0.00 0.00 0.00 1015.6
20260505090928 -17 103 0.0 0.0 0.00 0.00 0.00 1015.6
20260505090426 -17 103 0.0 1.6 0.00 0.00 0.00 1015.6
20260505085923 -17 103 0.0 1.6 0.00 0.00 0.00 1015.6
20260505085420 -17 103 0.0 1.6 0.00 0.00 0.00 1015.6
20260505084918 -17 103 0.0 1.6 0.00 0.00 0.00 1015.6
20260505084416 -17 103 0.0 1.6 0.00 0.00 0.00 1015.6
20260505083914 -17 103 0.0 1.6 0.00 0.00 0.00 1015.6
20260505083411 -17 103 0.0 1.6 0.00 0.00 0.00 1015.6
20260505082907 -17 103 0.0 1.6 0.00 0.00 0.00 1016.0
20260505082403 -17 103 0.0 0.0 0.00 0.00 0.00 1015.6
20260505081900 -17 103 0.0 0.0 0.00 0.00 0.00 1016.0
20260505081357 -17 103 0.0 0.0 0.00 0.00 0.00 1016.0
20260505080854 -17 103 0.0 0.0 0.00 0.00 0.00 1016.0
20260505080350 -17 103 0.0 0.0 0.00 0.00 0.00 1016.0
20260505075845 -17 103 0.0 0.0 0.00 0.00 0.00 1016.0
20260505075342 -17 103 0.0 0.0 0.00 0.00 0.00 1016.0
20260505074839 -17 103 0.0 0.0 0.00 0.00 0.00 1016.0
20260505074337 -17 103 0.0 0.0 0.00 0.00 0.00 1016.0
20260505073834 -17 103 0.0 1.6 0.00 0.00 0.00 1016.0
20260505073332 -17 103 0.0 1.6 0.00 0.00 0.00 1016.3
20260505072829 -17 103 0.0 1.6 0.00 0.00 0.00 1016.0
20260505072325 -17 103 0.0 1.6 0.00 0.00 0.00 1016.0
20260505071821 -17 103 0.0 1.6 0.00 0.00 0.00 1016.3
20260505071317 -17 103 0.0 3.2 0.00 0.00 0.00 1016.0
20260505070816 -17 103 0.0 3.2 0.00 0.00 0.00 1016.0
20260505070312 -17 103 0.0 3.2 0.00 0.00 0.00 1016.0
20260505065807 -17 103 0.0 3.2 0.00 0.03 0.03 1016.0
20260505065304 -17 103 0.0 3.2 0.00 0.03 0.03 1016.0
20260505064801 -17 103 0.0 1.6 0.00 0.03 0.03 1016.0
20260505064258 -17 103 0.0 0.0 0.00 0.03 0.03 1016.0
20260505063756 -17 103 0.0 0.0 0.00 0.03 0.03 1016.0
20260505063252 -17 103 0.0 0.0 0.00 0.03 0.03 1016.0
20260505062749 -17 103 0.0 0.0 0.00 0.03 0.03 1016.3
20260505062246 -17 103 0.0 0.0 0.00 0.03 0.03 1016.3
20260505061743 -17 103 0.0 1.6 0.00 0.03 0.03 1016.0
20260505061241 -17 103 0.0 3.2 0.00 0.03 0.03 1016.0
20260505060738 -17 103 0.0 3.2 0.00 0.03 0.03 1016.0
20260505060235 -17 103 0.0 1.6 0.00 0.03 0.03 1016.0
20260505055730 -17 103 0.0 1.6 0.00 0.03 0.03 1016.0
20260505055227 -17 103 0.0 0.0 0.00 0.03 0.03 1016.0
20260505054724 -17 103 0.0 1.6 0.00 0.03 0.03 1016.0
20260505054222 -17 103 0.0 1.6 0.00 0.03 0.03 1016.0
20260505053720 -17 103 0.0 0.0 0.00 0.03 0.03 1016.0
20260505053216 -17 103 0.0 0.0 0.00 0.03 0.03 1016.0
20260505052714 -17 103 0.0 1.6 0.00 0.03 0.03 1016.0
20260505052210 -17 103 0.0 1.6 0.00 0.03 0.03 1016.3
20260505051708 -17 103 0.0 3.2 0.00 0.03 0.03 1016.0
20260505051206 -17 103 0.0 3.2 0.00 0.03 0.03 1016.0
20260505050703 -17 103 0.0 3.2 0.00 0.03 0.03 1016.0
20260505050201 -17 103 0.0 3.2 0.00 0.03 0.03 1016.0
20260505041631 -17 145 0.0 3.2 0.00 0.03 0.03 1015.6
20260505041128 -17 145 0.0 3.2 0.00 0.03 0.03 1015.6
20260505040625 -17 159 0.0 3.2 0.00 0.03 0.03 1015.6
20260505040122 -17 159 0.0 3.2 0.00 0.03 0.03 1015.6
20260505035619 -17 159 0.0 3.2 0.00 0.03 0.03 1015.6
20260505035115 -17 159 0.0 3.2 0.00 0.03 0.03 1015.6
20260505034612 -17 123 0.0 4.8 0.00 0.03 0.03 1015.3
20260505034109 -17 123 0.0 4.8 0.00 0.03 0.03 1015.3
20260505033605 -17 83 0.0 3.2 0.00 0.03 0.03 1015.3
20260505033104 -17 83 0.0 4.8 0.00 0.03 0.03 1015.3
20260505032601 -17 83 0.0 4.8 0.00 0.03 0.03 1015.3
20260505032057 -17 34 0.0 4.8 0.00 0.03 0.03 1015.0
20260505031555 -17 34 1.6 6.4 0.00 0.03 0.03 1015.0
20260505031051 -17 149 1.6 6.4 0.00 0.03 0.03 1015.0
20260505030548 -17 71 1.6 4.8 0.00 0.03 0.03 1015.0
20260505030044 -17 75 0.0 4.8 0.00 0.03 0.03 1015.0
20260505025540 -17 75 1.6 4.8 0.00 0.03 0.03 1015.0
20260505025039 -17 69 0.0 3.2 0.00 0.03 0.03 1015.0
20260505024536 -17 69 0.0 3.2 0.00 0.03 0.03 1015.0
20260505024033 -17 69 0.0 3.2 0.00 0.03 0.03 1015.0
20260505023530 -17 69 0.0 3.2 0.00 0.03 0.03 1015.0
20260505023027 -17 69 0.0 1.6 0.00 0.03 0.03 1015.0
20260505022525 -17 69 0.0 1.6 0.03 0.03 0.03 1015.0
20260505022022 -17 69 1.6 4.8 0.03 0.03 0.03 1015.0
20260505021519 -17 69 1.6 4.8 0.03 0.03 0.03 1015.0
20260505021015 -17 52 0.0 3.2 0.03 0.03 0.03 1015.0
20260505020515 -17 52 0.0 3.2 0.03 0.03 0.03 1015.0
20260505020012 -17 52 0.0 4.8 0.03 0.03 0.03 1015.0
20260505015509 -17 52 0.0 4.8 0.03 0.03 0.03 1015.0
20260505015006 -17 348 0.0 3.2 0.03 0.03 0.03 1015.0
20260505014503 -17 348 1.6 6.4 0.03 0.03 0.03 1015.0
20260505014000 -17 355 1.6 8.0 0.03 0.03 0.03 1015.0
20260505013457 -17 155 1.6 8.0 0.03 0.03 0.03 1015.0
20260505012954 -17 348 1.6 4.8 0.03 0.03 0.03 1015.0
20260505012453 -17 0 1.6 4.8 0.00 0.00 0.00 1015.0
20260505011949 -17 0 1.6 4.8 0.00 0.00 0.00 1015.0
20260505011445 -17 0 1.6 4.8 0.00 0.00 0.00 1015.0
20260505010942 -17 40 1.6 4.8 0.00 0.00 0.00 1015.0
20260505010438 -17 133 1.6 4.8 0.00 0.00 0.00 1015.0
20260505005934 -17 22 1.6 4.8 0.00 0.00 0.00 1015.0
20260505005431 -17 162 1.6 6.4 0.00 0.00 0.00 1015.0
20260505004929 -17 348 1.6 6.4 0.00 0.00 0.00 1015.0
20260505004425 -17 5 1.6 6.4 0.00 0.00 0.00 1015.0
20260505003922 -17 82 1.6 8.0 0.00 0.00 0.00 1015.0
20260505003419 -17 49 1.6 9.7 0.00 0.00 0.00 1015.0
20260505002915 -17 59 1.6 9.7 0.00 0.00 0.00 1015.0
20260505002412 -17 82 1.6 4.8 0.00 0.00 0.00 1015.0
20260505001910 -17 89 1.6 6.4 0.00 0.00 0.00 1015.0
20260505001407 -17 178 1.6 9.7 0.00 0.00 0.00 1015.0
20260505000904 -17 346 1.6 9.7 0.00 0.00 0.00 1015.0
20260505000402 -17 71 1.6 4.8 0.00 0.00 0.00 1015.0